Tracking 28790 objects as of 18-Apr-2024
HD Live streaming from Space Station
objects crossing your sky now

COSMOS 2251 DEB

Track COSMOS 2251 DEB now!
10-day predictions


NORAD ID: 35905
Int'l Code: 1993-036AUU
Perigee: 537.6 km
Apogee: 698.2 km
Inclination: 74.0 °
Period: 96.9 minutes
Semi major axis: 6988 km
RCS: 0.0106 m2 (small)
Launch date: June 16, 1993
Source: Commonwealth of Independent States (former USSR) (CIS)
Launch site: PLESETSK MISSILE AND SPACE COMPLEX (PKMTR)

Note: This is SATELLITE DEBRIS
Your satellite tracking list
Your tracking list is empty




NASA's NSSDC Master Catalog

Two Line Element Set (TLE):
1 35905U 93036AUU 24108.92549811  .00010031  00000-0  10232-2 0  9992
2 35905  74.0383 344.8782 0114914 225.6229 133.5497 14.85900889797437
Source of the keplerian elements: AFSPC